Overview Statistics Trail Chart Weather Telemetry Raw packets
 

This is the latest recevied weather packets stored in our database for station/object CW79215. If no packets are shown the sender has not sent any weather packets the latest 10 day(s).

<< 1 2 3 4 5 6 >>
Time Temp. Humidity Pressure Rain* Wind** Luminosity Snow
1788659446 11.67° C 75% 1036.1 hPa - - - -
1788658546 11.67° C 73% 1036.1 hPa - - - -
1788657646 12.22° C 72% 1036.1 hPa - - - -
1788656746 12.22° C 74% 1036.2 hPa - - - -
1788655846 12.78° C 72% 1036.2 hPa - - - -
1788654946 12.78° C 73% 1036.2 hPa - - - -
1788654046 12.78° C 72% 1036.3 hPa - - - -
1788653146 12.78° C 73% 1036.2 hPa - - - -
1788652246 13.33° C 72% 1036.3 hPa - - - -
1788651346 13.33° C 72% 1036.2 hPa - - - -
1788650446 13.89° C 71% 1036.3 hPa - - - -
1788649545 13.89° C 73% 1036.3 hPa - - - -
1788648645 13.89° C 73% 1036.3 hPa - - - -
1788647745 14.44° C 73% 1036.4 hPa - - - -
1788646845 15° C 73% 1036.3 hPa - - - -
1788645945 15° C 72% 1036.2 hPa - - - -
1788645045 15.56° C 71% 1036.1 hPa - - - -
1788644145 16.11° C 70% 1036 hPa - - - -
1788643244 16.11° C 69% 1036 hPa - - - -
1788642344 16.11° C 71% 1036 hPa - - - -
1788641444 16.67° C 70% 1035.8 hPa - - - -
1788640546 16.67° C 71% 1035.7 hPa - - - -
1788639646 17.78° C 68% 1035.6 hPa - - - -
1788638746 18.33° C 66% 1035.5 hPa - - - -
1788637846 18.89° C 65% 1035.2 hPa - - - -

* Rain since midnight (hover to see other rain measurements)
** Current wind speed in m/s (hover to see current wind gust speed)